Погода в Прохладном

Россия / Приморский край     43°20′20″N   132°01′49″E
темп.,
°C
ветер,
м/с
пор.,
м/с
влажн.,
%
обл.,
%
осадки,
мм/ч
давл.,
гПа
погр.,
м
9 мая, вс
вс901:00+7ю1195100 2.8 99328
04:00+7ююз588899 3.0 993378
07:00+6зсз2488100 0.4 994372
10:00+6зюз2494100 1.9 996192
13:00+7ю1290100 2.0 997170
16:00+8ссз5884100 3.4 998594
19:00+6сз51094100 0.8 1001433
22:00+7ссз4989100 1.0 1004345
10 мая, пн
пн1001:00+8ссз41088100 0.3 1005390
04:00+8ссз5118798 0.4 1007337
07:00+8с3888100 0.0 1009286
10:00+10с467899 0.1 1010599
13:00+10зсз5774100 0.2 1011604
16:00+9ссз5979100 0.4 1011397
19:00+9с51081100 0.0 1012382
22:00+7ссз2392100 0.0 101454
11 мая, вт
вт1101:00+6ссз229594 0.0 101536
04:00+7ссз2592100 0.1 1015149
07:00+7ссз368999 0.0 1017171
10:00+10с467711 0.0 1018457
13:00+13с336040 0.0 1018914
16:00+9ю678034 0.0 1018255
19:00+7ю698949 0.0 1019307
22:00+6ю599197 0.0 1021372
12 мая, ср
ср1201:00+6ю5109131 0.0 1021374
04:00+6ююв5990100 0.0 1020281
07:00+6ю51286100 0.0 1020391
10:00+8ююв81476100 0.0 1018549
13:00+9ююв91675100 0.0 1017571
16:00+9ююв91679100 0.0 1015515
19:00+8ююв71389100 0.6 1015377
22:00+8ююв5109085 1.3 1016261
13 мая, чт
чт1301:00+8ю489298 0.0 1016176
04:00+8ю369398 0.0 1016130
07:00+8ю3693100 0.0 1016165
10:00+10ю468588 0.0 1016276
13:00+12ю5881100 0.0 1016349
16:00+12ю5979100 0.0 1014298
19:00+11ю588220 0.0 1013218
22:00+8ююв349117 0.0 101457